This is the latest recevied weather packets stored in our database for station/object KI4HRG. If no packets are shown the sender has not sent any weather packets the latest 10 day(s).
| Time | Temp. | Humidity | Pressure | Rain* | Wind** | Luminosity | Snow |
|---|---|---|---|---|---|---|---|
| 1777733257 | 15° C | 61% | 1015.6 hPa | 0 mm | - | 206 W/m² | - |
| 1777732954 | 15° C | 61% | 1015.7 hPa | 0 mm | - | 217 W/m² | - |
| 1777732650 | 14.44° C | 63% | 1015.4 hPa | 0 mm | - | 211 W/m² | - |
| 1777732347 | 14.44° C | 61% | 1015.5 hPa | 0 mm | - | 227 W/m² | - |
| 1777732045 | 14.44° C | 63% | 1015.6 hPa | 0 mm | - | 229 W/m² | - |
| 1777731741 | 13.89° C | 63% | 1015.6 hPa | 0 mm | - | 194 W/m² | - |
| 1777731438 | 13.89° C | 64% | 1015.4 hPa | 0 mm | - | 205 W/m² | - |
| 1777731137 | 14.44° C | 62% | 1015.3 hPa | 0 mm | - | 247 W/m² | - |
| 1777730835 | 14.44° C | 63% | 1015.3 hPa | 0 mm | - | 266 W/m² | - |
| 1777730532 | 13.89° C | 63% | 1015.3 hPa | 0 mm | - | 409 W/m² | - |
| 1777730227 | 13.89° C | 64% | 1015.5 hPa | 0 mm | - | 196 W/m² | - |
| 1777729925 | 13.89° C | 64% | 1015.3 hPa | 0 mm | - | 165 W/m² | - |
| 1777729620 | 13.33° C | 64% | 1015.1 hPa | 0 mm | - | 338 W/m² | - |
| 1777729318 | 13.33° C | 68% | 1015.2 hPa | 0 mm | - | 544 W/m² | - |
| 1777729014 | 12.22° C | 70% | 1015.1 hPa | 0 mm | - | 216 W/m² | - |
| 1777728711 | 12.22° C | 71% | 1015.2 hPa | 0 mm | - | 84 W/m² | - |
| 1777728407 | 12.22° C | 68% | 1015 hPa | 0 mm | - | 88 W/m² | - |
| 1777728105 | 12.22° C | 68% | 1014.9 hPa | 0 mm | - | 80 W/m² | - |
| 1777727802 | 12.22° C | 70% | 1014.8 hPa | 0 mm | - | 74 W/m² | - |
| 1777727498 | 12.22° C | 73% | 1014.6 hPa | 0 mm | - | 56 W/m² | - |
| 1777727196 | 12.22° C | 75% | 1014.3 hPa | 0 mm | - | 50 W/m² | - |
| 1777726894 | 12.22° C | 74% | 1014.6 hPa | 0 mm | - | 52 W/m² | - |
| 1777726590 | 12.22° C | 69% | 1014.3 hPa | 0 mm | - | 63 W/m² | - |
| 1777726287 | 12.22° C | 69% | 1014.3 hPa | 0 mm | - | 78 W/m² | - |
| 1777725984 | 12.22° C | 70% | 1014.3 hPa | 0 mm | - | 70 W/m² | - |
* Rain latest hour (hover to see other rain measurements)
** Current wind speed in m/s (hover to see current wind gust speed)